[[{"header":{"parameterUnit":"m.s-1","parameterCategory":1,"la1":30.2991,"la2":30.254,"lo1":-89.0895,"lo2":-89.0444,"dx":0.0017,"dy":0.0017,"nx":28,"ny":28,"refTime":"2022-12-15T09:00:00:Z","depth":0,"parameterNumber":2,"parameterNumberName":"U-component_of_WINDS"},"data":[0,0,0,0,0,0,0,0,0,0,0,0,0,0,0,0,0,0,0,0,0,0,0,0,0,0,0,0,0,0,0,0,0,0,0,0,0,0,0,0,0,0,0,0,0,0,0,0,0,0,0,0,0,0,0,0,0,0,0.5227,0.5228,0,0.5261,0.5262,0.5262,0.5313,0.5313,0.5314,0.5315,0.5349,0.5349,0.5349,0,0,0,0,0,0,0,0,0,0,0,0,0,0.5206,0.5206,0.5227,0.5228,0.5228,0.5261,0.5262,0.5262,0.5312,0.5313,0.5315,0.5316,0.5349,0.5349,0.5349,0,0,0,0,0,0,0,0,0,0,0,0,0,0.5225,0.5206,0.5227,0.5257,0.526,0.5261,0.5262,0.5262,0.5312,0.5314,0.5315,0.5316,0.5349,0.5349,0.5349,0.5323,0,0,0.5349,0.5349,0,0,0,0,0,0,0,0,0.5224,0.5226,0.5252,0.5255,0.5259,0.5284,0.5266,0.5283,0.5312,0.5292,0.5315,0.5317,0.5326,0.5328,0.5332,0.5324,0.5326,0.5349,0.5349,0.5349,0.535,0,0,0,0,0,0,0,0.5222,0.5224,0.5241,0.5253,0.5257,0.5269,0.5273,0.527,0.5301,0.5294,0.5298,0.5301,0.5328,0.5331,0.5333,0.5326,0.5349,0.5349,0.535,0.535,0.5299,0.5298,0,0,0,0,0,0,0.5217,0.5223,0.524,0.5242,0.5244,0.5268,0.5273,0.5275,0.5302,0.5307,0.53,0.5304,0.5331,0.5333,0.5334,0.5305,0.5349,0.535,0.535,0.5301,0.5299,0.5298,0,0,0,0,0,0,0.5216,0.5218,0.5238,0.5233,0.5237,0.5267,0.5269,0.5274,0.5278,0.5306,0.5312,0.5298,0.5332,0.5334,0.5325,0.5307,0.535,0.535,0.5302,0.53,0.5298,0.5246,0,0,0,0,0,0,0.5215,0.5217,0.5208,0.5233,0.5237,0.5229,0.5267,0.5274,0.5278,0.5283,0.5305,0.531,0.5333,0.5325,0.5325,0.5308,0.535,0.5304,0.5301,0.5299,0.525,0.5242,0.5236,0,0,0,0,0,0.5214,0.5191,0.5207,0.5208,0.5226,0.5228,0.523,0.5257,0.5276,0.5267,0.5285,0.531,0.5309,0.5324,0.5325,0.5307,0.5305,0.5302,0.5299,0.5253,0.5244,0.5237,0,0,0,0,0,0,0.5163,0.5195,0.5213,0.5197,0.5209,0.5236,0.5225,0.5247,0.5253,0.5257,0.529,0.5295,0.5282,0.5294,0.5309,0.5283,0.5311,0.5308,0.5275,0.5267,0.5261,0.5258,0.535,0,0,0,0,0,0.5149,0.5149,0.5177,0.5161,0.5166,0.5194,0.5196,0.5216,0.523,0.5235,0.5252,0.5264,0.5267,0.5268,0.5272,0.5252,0.5257,0.524,0.5234,0.5228,0.5225,0.5214,0.5207,0.5287,0.5287,0.5287,0,0,0.5122,0.514,0.5137,0.5151,0.5162,0.516,0.5198,0.5195,0.5193,0.5234,0.5227,0.524,0.5256,0.5241,0.5236,0.5251,0.5204,0.5224,0.5219,0.5219,0.521,0.5203,0.5196,0.5285,0.5286,0.5286,0,0,0.5071,0.5085,0.5072,0.5084,0.5101,0.512,0.5117,0.5141,0.5151,0.5145,0.5175,0.5174,0.5178,0.5188,0.5194,0.5147,0.517,0.5148,0.5113,0.5102,0.5096,0.509,0.5073,0.5066,0.5144,0.5144,0.5144,0,0.5035,0.5033,0.5063,0.5058,0.5063,0.51,0.5088,0.5097,0.5115,0.5117,0.5134,0.514,0.5153,0.5141,0.5129,0.5133,0.513,0.5144,0.5095,0.5089,0.5085,0.5068,0.5062,0.5141,0.5142,0.5142,0.5142,0,0.4987,0.4986,0.4974,0.499,0.4994,0.4985,0.5013,0.5014,0.5033,0.505,0.5043,0.5061,0.5069,0.5068,0.5087,0.5058,0.5067,0.5089,0.5117,0.5074,0.5059,0.5053,0.5137,0.5138,0.5139,0.514,0,0,0.4903,0.4937,0.4932,0.494,0.4962,0.4961,0.4954,0.4963,0.4962,0.4973,0.4967,0.497,0.499,0.4997,0.5017,0.5008,0.4969,0.5031,0.5032,0.5018,0.4938,0.4921,0.4913,0.4985,0.4984,0.4983,0.4937,0,0.4856,0.4846,0.4873,0.4855,0.4854,0.489,0.4884,0.4897,0.4913,0.4914,0.4932,0.4933,0.496,0.4964,0.4957,0.4976,0.4954,0.498,0.4979,0.4979,0.4973,0.4906,0.4887,0.4842,0.4931,0.493,0.493,0,0.4799,0.4807,0.479,0.4813,0.4814,0.4807,0.4817,0.4818,0.4834,0.4846,0.4853,0.4877,0.4872,0.4901,0.4893,0.491,0.4912,0.4921,0.492,0.492,0.4951,0.4903,0.4829,0.4822,0.4921,0.4922,0.4922,0,0.4738,0.4745,0.4736,0.4742,0.4769,0.4764,0.4775,0.4792,0.4795,0.4803,0.4806,0.4813,0.4817,0.4823,0.4848,0.4867,0.4837,0.4868,0.4847,0.4846,0.4838,0.4838,0.4762,0.4841,0.4841,0.4841,0.4841,0,0.4682,0.4669,0.4709,0.4703,0.469,0.4722,0.4708,0.4723,0.4737,0.4735,0.4767,0.4764,0.4798,0.4799,0.4819,0.4809,0.4811,0.482,0.4826,0.4817,0.4815,0.4817,0.4821,0.4839,0.484,0.484,0.484,0,0.4611,0.4637,0.4629,0.4656,0.4662,0.4651,0.4674,0.467,0.4689,0.4685,0.4685,0.4714,0.4717,0.4743,0.4751,0.4765,0.4747,0.4759,0.4741,0.4745,0.4721,0.4722,0.4643,0.4634,0.472,0.4719,0.4718,0,0.4572,0.4564,0.459,0.4591,0.46,0.4601,0.4604,0.4636,0.4638,0.4655,0.4648,0.4653,0.4658,0.466,0.4682,0.4688,0.47,0.4671,0.4701,0.4692,0.4698,0.4697,0.4696,0.4665,0.4664,0.4663,0.4662,0,0.4501,0.4515,0.4519,0.4527,0.4531,0.4539,0.4549,0.4548,0.4582,0.4583,0.4586,0.459,0.4598,0.4603,0.4613,0.4624,0.4648,0.4653,0.4648,0.4638,0.4628,0.4632,0.4723,0.4654,0.4655,0.4655,0.4656,0.4656,0.4445,0.4439,0.4456,0.4459,0.447,0.4479,0.4476,0.4495,0.4498,0.4507,0.4525,0.4525,0.4541,0.4557,0.4567,0.4567,0.4581,0.4575,0.4573,0.457,0.4565,0.4629,0.4569,0.4569,0.457,0.457,0.457,0,0.4374,0.4387,0.439,0.4403,0.4406,0.443,0.4442,0.4443,0.4442,0.4455,0.446,0.4463,0.4468,0.449,0.4497,0.4493,0.4504,0.4493,0.4493,0.4495,0.4552,0.4555,0.4484,0.4484,0.4484,0.4484,0.4484,0.4484,0.4337,0.4328,0.4344,0.434,0.4354,0.4354,0.4359,0.4367,0.4378,0.438,0.4384,0.4398,0.4415,0.4423,0.4428,0.4435,0.4435,0.4421,0.4431,0.4483,0.4491,0.4499,0.4502,0.4421,0.4421,0.4374,0.4373,0.4373]},{"header":{"parameterUnit":"m.s-1","parameterCategory":1,"la1":30.2991,"la2":30.254,"lo1":-89.0895,"lo2":-89.0444,"dx":0.0017,"dy":0.0017,"nx":28,"ny":28,"refTime":"2022-12-15T09:00:00:Z","depth":0,"parameterNumber":3,"parameterNumberName":"V-component_of_WINDS"},"data":[0,0,0,0,0,0,0,0,0,0,0,0,0,0,0,0,0,0,0,0,0,0,0,0,0,0,0,0,0,0,0,0,0,0,0,0,0,0,0,0,0,0,0,0,0,0,0,0,0,0,0,0,0,0,0,0,0,0,-0.2786,-0.2787,0,-0.2838,-0.2838,-0.2839,-0.2858,-0.2858,-0.2858,-0.2857,-0.2909,-0.2911,-0.2912,0,0,0,0,0,0,0,0,0,0,0,0,0,-0.2705,-0.2706,-0.2786,-0.2787,-0.2788,-0.2837,-0.2838,-0.2839,-0.2858,-0.2858,-0.2857,-0.2857,-0.2909,-0.2911,-0.2912,0,0,0,0,0,0,0,0,0,0,0,0,0,-0.2747,-0.2707,-0.2786,-0.2803,-0.2805,-0.2837,-0.2838,-0.2839,-0.2858,-0.2858,-0.2857,-0.2857,-0.2908,-0.291,-0.2913,-0.2932,0,0,-0.292,-0.2921,0,0,0,0,0,0,0,0,-0.2744,-0.275,-0.28,-0.2802,-0.2804,-0.2841,-0.2829,-0.287,-0.2858,-0.2838,-0.2857,-0.2857,-0.2887,-0.2891,-0.2901,-0.2934,-0.2936,-0.292,-0.2921,-0.2922,-0.2923,0,0,0,0,0,0,0,-0.2741,-0.2747,-0.2807,-0.2801,-0.2803,-0.2808,-0.2814,-0.2837,-0.2863,-0.284,-0.2841,-0.2847,-0.2888,-0.2899,-0.2902,-0.2937,-0.292,-0.2922,-0.2923,-0.2924,-0.299,-0.299,0,0,0,0,0,0,-0.2736,-0.2745,-0.2805,-0.2808,-0.2773,-0.281,-0.2816,-0.2829,-0.2863,-0.2868,-0.2847,-0.2848,-0.2895,-0.29,-0.2904,-0.293,-0.2922,-0.2924,-0.2926,-0.2989,-0.299,-0.299,0,0,0,0,0,0,-0.2734,-0.2741,-0.2803,-0.2777,-0.2785,-0.2811,-0.2826,-0.2831,-0.2841,-0.2868,-0.2873,-0.2853,-0.2895,-0.2901,-0.2925,-0.2932,-0.2925,-0.2927,-0.2989,-0.299,-0.299,-0.298,0,0,0,0,0,0,-0.2731,-0.274,-0.2747,-0.2777,-0.2787,-0.2823,-0.2827,-0.2832,-0.2845,-0.2847,-0.2876,-0.288,-0.2895,-0.2921,-0.2927,-0.2935,-0.2929,-0.2988,-0.2989,-0.299,-0.298,-0.298,-0.298,0,0,0,0,0,-0.2728,-0.2742,-0.2748,-0.2755,-0.2796,-0.2823,-0.2829,-0.2846,-0.2846,-0.2854,-0.2871,-0.2879,-0.293,-0.2924,-0.293,-0.2939,-0.2988,-0.2989,-0.299,-0.298,-0.298,-0.298,0,0,0,0,0,0,-0.2712,-0.2746,-0.2753,-0.2776,-0.2797,-0.2826,-0.2837,-0.2845,-0.2866,-0.2866,-0.2886,-0.2893,-0.2916,-0.2929,-0.2922,-0.296,-0.296,-0.2962,-0.295,-0.295,-0.295,-0.2947,-0.2931,0,0,0,0,0,-0.2711,-0.273,-0.2759,-0.2777,-0.2787,-0.281,-0.2822,-0.2834,-0.2856,-0.2864,-0.2884,-0.2904,-0.2925,-0.2938,-0.2959,-0.2982,-0.2989,-0.2991,-0.2991,-0.2991,-0.2993,-0.3008,-0.3009,-0.2993,-0.2993,-0.2993,0,0,-0.2709,-0.2731,-0.2741,-0.2774,-0.2791,-0.2811,-0.2817,-0.2837,-0.2852,-0.2867,-0.2892,-0.2906,-0.2931,-0.2955,-0.2967,-0.2967,-0.2999,-0.2992,-0.2992,-0.2994,-0.3009,-0.301,-0.3011,-0.2993,-0.2993,-0.2993,0,0,-0.2717,-0.2734,-0.2752,-0.2769,-0.2795,-0.2811,-0.2815,-0.2844,-0.2854,-0.2879,-0.2891,-0.2909,-0.2944,-0.2962,-0.2975,-0.299,-0.2999,-0.2996,-0.2998,-0.3012,-0.3013,-0.3014,-0.3021,-0.3023,-0.2998,-0.2998,-0.2998,0,-0.2711,-0.2741,-0.276,-0.278,-0.2794,-0.281,-0.2828,-0.2844,-0.2875,-0.2885,-0.2885,-0.2931,-0.2948,-0.2977,-0.2981,-0.2991,-0.2997,-0.2993,-0.3011,-0.3013,-0.3014,-0.3021,-0.3023,-0.2997,-0.2997,-0.2997,-0.2997,0,-0.2734,-0.2755,-0.2766,-0.2796,-0.2812,-0.2831,-0.2853,-0.2866,-0.2877,-0.2892,-0.2918,-0.294,-0.2965,-0.2973,-0.2983,-0.3004,-0.3004,-0.3007,-0.3008,-0.3015,-0.3021,-0.3024,-0.2997,-0.2997,-0.2997,-0.2997,0,0,-0.2731,-0.2773,-0.2777,-0.2792,-0.2823,-0.2839,-0.2859,-0.2885,-0.2897,-0.2918,-0.2936,-0.2965,-0.2969,-0.2985,-0.2997,-0.3009,-0.3021,-0.3011,-0.3012,-0.3013,-0.3046,-0.3044,-0.3047,-0.3026,-0.3027,-0.3027,-0.3045,0,-0.2743,-0.278,-0.2798,-0.2827,-0.2847,-0.2863,-0.288,-0.2901,-0.2916,-0.2935,-0.2952,-0.2973,-0.2977,-0.2986,-0.2999,-0.3017,-0.3028,-0.3016,-0.3044,-0.3044,-0.3038,-0.305,-0.3047,-0.3063,-0.3047,-0.3048,-0.3048,0,-0.2762,-0.2784,-0.2816,-0.2846,-0.2855,-0.287,-0.2896,-0.2914,-0.2938,-0.2948,-0.2966,-0.2978,-0.3,-0.2999,-0.303,-0.3021,-0.3033,-0.3044,-0.3045,-0.3049,-0.3047,-0.3055,-0.3068,-0.307,-0.3052,-0.3052,-0.3051,0,-0.2759,-0.2796,-0.282,-0.2832,-0.2867,-0.2878,-0.2893,-0.2917,-0.2932,-0.2954,-0.2964,-0.2989,-0.3002,-0.3021,-0.3039,-0.3036,-0.3069,-0.3069,-0.3079,-0.3078,-0.3085,-0.3085,-0.3101,-0.3092,-0.3092,-0.3092,-0.3092,0,-0.277,-0.2789,-0.282,-0.2834,-0.2856,-0.2877,-0.2898,-0.2914,-0.2935,-0.2954,-0.2968,-0.2985,-0.3008,-0.3028,-0.3043,-0.3067,-0.3073,-0.3082,-0.3086,-0.3081,-0.308,-0.309,-0.309,-0.3092,-0.3092,-0.3092,-0.3092,0,-0.277,-0.2791,-0.2819,-0.285,-0.2858,-0.2873,-0.29,-0.2915,-0.2932,-0.2955,-0.2961,-0.2987,-0.3011,-0.3032,-0.3063,-0.3073,-0.3099,-0.3103,-0.3091,-0.3093,-0.3102,-0.3102,-0.3127,-0.3131,-0.3117,-0.3118,-0.3118,0,-0.2777,-0.2792,-0.2825,-0.2839,-0.2854,-0.2876,-0.2892,-0.2912,-0.2928,-0.2958,-0.2969,-0.2995,-0.3017,-0.3055,-0.3077,-0.3101,-0.3106,-0.3114,-0.311,-0.3106,-0.3108,-0.3107,-0.3109,-0.3114,-0.3114,-0.3114,-0.3114,0,-0.2786,-0.2796,-0.2818,-0.2845,-0.2863,-0.2885,-0.2907,-0.2917,-0.2942,-0.2959,-0.2985,-0.3002,-0.3035,-0.306,-0.3088,-0.3103,-0.3113,-0.3115,-0.3119,-0.3115,-0.3108,-0.3113,-0.3093,-0.3114,-0.3114,-0.3114,-0.3114,-0.3114,-0.279,-0.2805,-0.2831,-0.2856,-0.2875,-0.2895,-0.2912,-0.2931,-0.2953,-0.2982,-0.2993,-0.3019,-0.3044,-0.3082,-0.3098,-0.3119,-0.312,-0.3125,-0.3127,-0.3128,-0.3128,-0.3104,-0.3124,-0.3124,-0.3124,-0.3124,-0.3124,0,-0.2801,-0.282,-0.2842,-0.2873,-0.2893,-0.2901,-0.2926,-0.2942,-0.2965,-0.2988,-0.301,-0.304,-0.3065,-0.3089,-0.3115,-0.3128,-0.3133,-0.3134,-0.3134,-0.3138,-0.3125,-0.312,-0.313,-0.313,-0.313,-0.313,-0.313,-0.313,-0.281,-0.2836,-0.2849,-0.2885,-0.2903,-0.293,-0.2944,-0.2963,-0.2981,-0.3015,-0.3036,-0.3052,-0.3075,-0.3104,-0.3128,-0.3134,-0.3144,-0.3144,-0.3151,-0.3139,-0.3138,-0.3138,-0.3133,-0.3145,-0.3145,-0.3162,-0.3162,-0.3163]}]]